Time,TemperatureF,DewpointF,PressureIn,WindDirection,WindDirectionDegrees,WindSpeedMPH,WindSpeedGustMPH,Humidity,HourlyPrecipIn,Conditions,Clouds,dailyrainin,SolarRadiationWatts/m^2,SoftwareType,DateUTC
2013-04-13 00:00:00,51.0,11.0,29.88,SSW,211,2.0,-999.0,20,-99.99,,,-99.99,0.100000,,2013-04-13 06:00:00,
2013-04-13 00:55:00,51.0,11.0,29.88,SSW,211,2.0,-999.0,20,-99.99,,,-99.99,0.100000,,2013-04-13 06:55:00,
2013-04-13 02:00:00,51.0,10.0,29.89,NE,39,3.0,4.0,19,-99.99,,,-99.99,0.100000,,2013-04-13 08:00:00,
2013-04-13 03:00:00,54.0,13.0,29.88,West,273,3.0,-999.0,19,-99.99,,,-99.99,0.060000,,2013-04-13 09:00:00,
2013-04-13 03:55:00,54.0,13.0,29.88,West,273,3.0,-999.0,19,-99.99,,,-99.99,0.060000,,2013-04-13 09:55:00,
2013-04-13 04:00:00,52.0,12.0,29.89,NNE,23,3.0,-999.0,20,-99.99,,,-99.99,0.040000,,2013-04-13 10:00:00,
2013-04-13 04:55:00,52.0,12.0,29.89,NNE,23,3.0,-999.0,20,-99.99,,,-99.99,0.040000,,2013-04-13 10:55:00,
2013-04-13 05:00:00,50.0,13.0,29.88,NNE,27,4.0,-999.0,22,-99.99,,,-99.99,0.070000,,2013-04-13 11:00:00,
2013-04-13 05:54:00,50.0,13.0,29.88,NNE,27,4.0,-999.0,22,-99.99,,,-99.99,0.070000,,2013-04-13 11:54:00,
2013-04-13 06:00:00,46.0,10.0,29.88,ENE,63,5.0,-999.0,23,-99.99,,,-99.99,0.140000,,2013-04-13 12:00:00,
2013-04-13 06:55:00,46.0,10.0,29.88,ENE,63,5.0,-999.0,23,-99.99,,,-99.99,0.140000,,2013-04-13 12:55:00,
2013-04-13 07:00:00,45.0,12.0,29.88,NNW,336,2.0,-999.0,26,-99.99,,,-99.99,4.050000,,2013-04-13 13:00:00,
2013-04-13 07:56:00,45.0,12.0,29.88,NNW,336,2.0,-999.0,26,-99.99,,,-99.99,4.050000,,2013-04-13 13:56:00,
2013-04-13 08:00:00,57.0,15.0,29.89,NNE,21,2.0,-999.0,19,-99.99,,,-99.99,141.100006,,2013-04-13 14:00:00,
2013-04-13 08:59:00,57.0,15.0,29.89,NNE,21,2.0,-999.0,19,-99.99,,,-99.99,141.100006,,2013-04-13 14:59:00,
2013-04-13 09:00:00,62.0,20.0,29.89,WNW,282,2.0,-999.0,19,-99.99,,,-99.99,358.000000,,2013-04-13 15:00:00,
2013-04-13 09:58:00,62.0,20.0,29.89,WNW,282,2.0,-999.0,19,-99.99,,,-99.99,358.000000,,2013-04-13 15:58:00,
2013-04-13 10:00:00,68.0,20.0,29.89,NNW,330,4.0,-999.0,16,-99.99,,,-99.99,578.700012,,2013-04-13 16:00:00,
2013-04-13 11:00:00,71.0,21.0,29.88,West,275,4.0,-999.0,15,-99.99,,,-99.99,774.700012,,2013-04-13 17:00:00,
2013-04-13 12:00:00,72.0,19.0,29.85,West,259,4.0,-999.0,13,-99.99,,,-99.99,924.000000,,2013-04-13 18:00:00,
2013-04-13 12:53:00,72.0,19.0,29.85,West,259,4.0,-999.0,13,-99.99,,,-99.99,924.000000,,2013-04-13 18:53:00,
2013-04-13 13:00:00,75.0,17.0,29.84,WSW,243,7.0,-999.0,11,-99.99,,,-99.99,1007.000000,,2013-04-13 19:00:00,
2013-04-13 13:53:00,75.0,17.0,29.84,WSW,243,7.0,-999.0,11,-99.99,,,-99.99,1007.000000,,2013-04-13 19:53:00,
2013-04-13 14:00:00,76.0,18.0,29.81,West,275,8.0,-999.0,11,-99.99,,,-99.99,1003.000000,,2013-04-13 20:00:00,
2013-04-13 14:52:00,76.0,18.0,29.81,West,275,8.0,-999.0,11,-99.99,,,-99.99,1003.000000,,2013-04-13 20:52:00,
2013-04-13 15:00:00,77.0,17.0,29.78,WSW,237,8.0,-999.0,10,-99.99,,,-99.99,769.099976,,2013-04-13 21:00:00,
2013-04-13 15:53:00,77.0,17.0,29.78,WSW,237,8.0,-999.0,10,-99.99,,,-99.99,769.099976,,2013-04-13 21:53:00,
2013-04-13 16:00:00,77.0,17.0,29.76,SW,236,11.0,-999.0,10,-99.99,,,-99.99,804.000000,,2013-04-13 22:00:00,
2013-04-13 16:53:00,77.0,17.0,29.76,SW,236,11.0,-999.0,10,-99.99,,,-99.99,804.000000,,2013-04-13 22:53:00,
2013-04-13 17:00:00,79.0,17.0,29.74,SW,230,11.0,-999.0,10,-99.99,,,-99.99,591.200012,,2013-04-13 23:00:00,
2013-04-13 17:53:00,79.0,17.0,29.74,SW,230,11.0,-999.0,10,-99.99,,,-99.99,591.200012,,2013-04-13 23:53:00,
2013-04-13 18:00:00,77.0,16.0,29.74,WSW,249,14.0,-999.0,10,-99.99,,,-99.99,420.799988,,2013-04-14 00:00:00,
2013-04-13 18:52:00,77.0,16.0,29.74,WSW,249,14.0,-999.0,10,-99.99,,,-99.99,420.799988,,2013-04-14 00:52:00,
2013-04-13 19:00:00,75.0,15.0,29.74,WSW,238,18.0,-999.0,10,-99.99,,,-99.99,193.899994,,2013-04-14 01:00:00,
2013-04-13 19:53:00,75.0,15.0,29.74,WSW,238,18.0,-999.0,10,-99.99,,,-99.99,193.899994,,2013-04-14 01:53:00,
2013-04-13 20:00:00,71.0,14.0,29.75,WSW,242,18.0,-999.0,11,-99.99,,,-99.99,21.270000,,2013-04-14 02:00:00,
2013-04-13 20:53:00,71.0,14.0,29.75,WSW,242,18.0,-999.0,11,-99.99,,,-99.99,21.270000,,2013-04-14 02:53:00,
2013-04-13 21:00:00,68.0,14.0,29.77,WSW,239,14.0,-999.0,12,-99.99,,,-99.99,0.000000,,2013-04-14 03:00:00,
2013-04-13 21:53:00,68.0,14.0,29.77,WSW,239,14.0,-999.0,12,-99.99,,,-99.99,0.000000,,2013-04-14 03:53:00,
2013-04-13 22:00:00,66.0,14.0,29.78,WSW,243,9.0,-999.0,13,-99.99,,,-99.99,0.000000,,2013-04-14 04:00:00,
2013-04-13 22:52:00,66.0,14.0,29.78,WSW,243,9.0,-999.0,13,-99.99,,,-99.99,0.000000,,2013-04-14 04:52:00,
2013-04-13 23:00:00,62.0,14.0,29.78,WSW,242,8.0,-999.0,15,-99.99,,,-99.99,0.020000,,2013-04-14 05:00:00,
2013-04-13 23:52:00,62.0,14.0,29.78,WSW,242,8.0,-999.0,15,-99.99,,,-99.99,0.020000,,2013-04-14 05:52:00,